H-2A R/B

Last updated on Wed Jul 02 2025 00:02:15 GMT+0000 (Coordinated Universal Time)

1 43682U 18084L 25182.41028394 .00011985 00000+0 39769-3 0 9993 2 43682 98.8781 343.4922 0032416 167.2585 192.9478 15.30939194367216
UTC large
Height (km)
Speed (km/s)
/
Latitude / Longitude
Inclination (degrees)
Orbital Period (minutes)
Azimuth
Elevation
Range (km)
Doppler Factor

Next 0 passes for location: London (51.5072 / 0.1276)

Sorry there are no passes over London.